Content
SEND FEEDBACK

Daily
Averages
Monthly
Summary
Switzerland

ZÜRICH, SWITZERLAND


Home > Europe > Switzerland
Elevation: 1867 feet     Latitude: 47 23N     Longitude: 008 34E

WEATHER
 
SELECT A DAY
Number of Records: 287,315;   Date Range: 7/1/96 - 7/22/14
 
SHARE

PRINT THIS DATA

[ ← Previous Day ]
WEATHER ALMANAC - JANUARY 21, 2013
[ Next Day → ]
[ °C ]   °F
Weather ElementAverageHighLow
Temperature31.2 °F34 °F (2:00 pm)28.4 °F (6:20 am)
Dewpoint27.2 °F30.2 °F (4:20 pm)24 °F (5:00 am)
Humidity83.6 %93 % (2:20 am)66 % (1:00 pm)
Barometer29.47 in29.58 in (11:00 pm)29.39 in (12:20 am)
Wind Speed4.5 mph9.2 mph (3:50 am)
Weather ElementAverage
Visibility4.4 mi
Wind DirectionSE (140.6 °)

Weather ElementTotal
Precipitation---
Heating Degree Days33.8 (Base 65)
Averaged from 67 records on January 21, 2013
WEATHER CONDITIONS BREAKOUT
WIND DIRECTION BREAKOUT
WEATHER BY HOUR - JANUARY 21, 2013
[ °C ]   °F
Local TimeTemperatureDewpointHumidityBarometerVisibilityWind DirectionWind SpeedGust SpeedPrecipitationEventsConditions
12:20 AM32.0 °F28.4 °F87 %29.39 in2.5 miSouth (190°)6.9 mphSnowLight Snow
12:50 AM32.0 °F28.4 °F87 %29.42 in2.2 miWSW (240°)3.5 mphSnowLight Snow
1:00 AM32.0 °F29.0 °F83 %29.48 in2.0 miWSW (250°)3.5 mphSnowSnow Grains
1:50 AM32.0 °F28.4 °F87 %29.42 in2.5 miVariable1.2 mphSnowLight Snow
2:00 AM31.0 °F29.0 °F90 %29.48 inSW (220°)2.3 mph
2:20 AM30.2 °F28.4 °F93 %29.42 in5.0 miVariable1.2 mphMostly Cloudy
2:50 AM32.0 °F26.6 °F80 %29.42 in4.3 miWest (260°)4.6 mphSnowLight Snow
3:00 AM31.0 °F28.0 °F82 %29.49 inSW (230°)2.3 mph
3:20 AM30.2 °F26.6 °F86 %29.42 in6.2 miVariable1.2 mphMostly Cloudy
3:50 AM30.2 °F26.6 °F86 %29.42 in6.2 miWest (280°)9.2 mphMostly Cloudy
4:20 AM30.2 °F24.8 °F80 %29.42 in6.2 miWest (280°)6.9 mphMostly Cloudy
4:50 AM30.2 °F24.8 °F80 %29.42 in6.2 miWest (260°)8.1 mphSnowLight Snow
5:00 AM30.0 °F24.0 °F72 %29.50 inWNW (290°)6.9 mph
5:20 AM30.2 °F24.8 °F80 %29.42 in6.2 miWest (270°)6.9 mphSnowLight Snow
5:50 AM30.2 °F24.8 °F80 %29.44 in5.0 miWest (270°)6.9 mphSnowLight Snow
6:00 AM30.0 °F25.0 °F76 %29.51 inWNW (290°)8.1 mph
6:20 AM28.4 °F26.6 °F93 %29.44 in2.2 miWest (260°)5.8 mphSnowLight Snow
6:50 AM28.4 °F26.6 °F93 %29.44 in1.7 miWest (280°)4.6 mphSnowLight Snow
7:00 AM29.0 °F26.0 °F86 %29.53 in2.0 miWNW (290°)3.5 mphSnowLight Snow
7:20 AM28.4 °F26.6 °F93 %29.44 in1.4 miVariable1.2 mphSnowSnow
7:50 AM28.4 °F26.6 °F93 %29.44 in1.2 miVariable2.3 mphSnowSnow
8:00 AM29.0 °F27.0 °F88 %29.54 inWSW (240°)2.3 mph
8:00 AM28.4 °F26.6 °F93 %29.44 in1.2 miVariable2.3 mphSnowSnow
8:20 AM28.4 °F26.6 °F93 %29.47 in0.9 miVariable1.2 mphSnowSnow
8:50 AM28.4 °F26.6 °F93 %29.47 in1.2 miVariable1.2 mphSnowLight Snow
9:00 AM29.0 °F27.0 °F88 %29.55 inESE (110°)2.3 mph
9:20 AM28.4 °F26.6 °F93 %29.47 in3.1 miCalmSnowLight Snow
9:50 AM28.4 °F26.6 °F93 %29.47 in3.1 miVariable1.2 mphMostly Cloudy
10:20 AM30.2 °F26.6 °F86 %29.47 in3.7 miVariable1.2 mphMostly Cloudy
10:50 AM30.2 °F26.6 °F86 %29.47 in4.3 miSE (130°)3.5 mphMostly Cloudy
11:00 AM31.0 °F27.0 °F79 %29.54 inSSE (150°)3.5 mph
11:20 AM30.2 °F26.6 °F86 %29.47 in5.0 miSE (130°)4.6 mphMostly Cloudy
11:50 AM32.0 °F26.6 °F80 %29.44 in5.6 miSE (140°)4.6 mphMostly Cloudy
12:00 PM32.0 °F26.0 °F72 %29.53 inSE (140°)2.3 mph
12:20 PM33.8 °F26.6 °F75 %29.44 in5.6 miSE (140°)3.5 mphScattered Clouds
12:50 PM33.8 °F26.6 °F75 %29.44 in6.2 miVariable2.3 mphMostly Cloudy
1:00 PM33.0 °F26.0 °F66 %29.52 in6.0 miENE (60°)1.2 mphMist
1:20 PM33.8 °F26.6 °F75 %29.44 in6.2 miVariable1.2 mphMostly Cloudy
1:50 PM33.8 °F26.6 °F75 %29.44 in6.2 miSSE (150°)4.6 mphMostly Cloudy
2:00 PM34.0 °F27.0 °F66 %29.52 inSSE (150°)2.3 mph
2:20 PM33.8 °F26.6 °F75 %29.44 in6.2 miSE (140°)6.9 mphMostly Cloudy
2:50 PM33.8 °F26.6 °F75 %29.44 in4.3 miSE (140°)5.8 mphSnowLight Snow
3:00 PM34.0 °F28.0 °F70 %29.52 inSouth (190°)3.5 mph
3:20 PM33.8 °F28.4 °F81 %29.44 in2.5 miSSE (150°)4.6 mphSnowLight Snow
3:50 PM33.8 °F28.4 °F81 %29.44 in3.1 miSSE (160°)5.8 mphSnowLight Snow
4:20 PM33.8 °F30.2 °F87 %29.47 in2.2 miSE (140°)6.9 mphSnowLight Snow
4:50 PM33.8 °F30.2 °F87 %29.47 in2.2 miSE (140°)6.9 mphSnowLight Snow
5:00 PM34.0 °F30.0 °F81 %29.53 inSSE (150°)5.8 mph
5:20 PM32.0 °F30.2 °F93 %29.47 in5.0 miESE (120°)4.6 mphMostly Cloudy
5:50 PM32.0 °F28.4 °F87 %29.47 in6.2 miESE (120°)5.8 mphMostly Cloudy
6:00 PM33.0 °F29.0 °F78 %29.54 inSSE (150°)8.1 mph
6:20 PM32.0 °F28.4 °F87 %29.47 in6.2 miSSE (150°)6.9 mphMostly Cloudy
6:50 PM32.0 °F28.4 °F87 %29.47 in6.2 miSE (140°)6.9 mphMostly Cloudy
7:00 PM33.0 °F29.0 °F81 %29.55 in6.0 miSSE (150°)8.1 mphMist
7:20 PM32.0 °F28.4 °F87 %29.47 in6.2 miSSE (150°)5.8 mphMostly Cloudy
7:50 PM32.0 °F28.4 °F87 %29.47 in6.2 miSSE (150°)8.1 mphMostly Cloudy
8:00 PM32.0 °F28.0 °F79 %29.55 inSouth (170°)6.9 mph
8:20 PM32.0 °F26.6 °F80 %29.47 in6.2 miESE (110°)5.8 mphMostly Cloudy
8:50 PM30.2 °F26.6 °F86 %29.50 in6.2 miSE (140°)5.8 mphMostly Cloudy
9:00 PM31.0 °F27.0 °F81 %29.57 inSSE (150°)2.3 mph
9:20 PM30.2 °F26.6 °F86 %29.50 in6.2 miVariable2.3 mphScattered Clouds
9:50 PM30.2 °F26.6 °F86 %29.50 in6.2 miSE (130°)8.1 mphMostly Cloudy
10:20 PM32.0 °F26.6 °F80 %29.50 in6.2 miESE (110°)6.9 mphMostly Cloudy
10:50 PM30.2 °F28.4 °F93 %29.50 in5.0 miSSE (150°)3.5 mphMostly Cloudy
11:00 PM31.0 °F28.0 °F82 %29.58 inSSE (160°)3.5 mph
11:20 PM30.2 °F26.6 °F86 %29.50 in5.0 miSE (130°)5.8 mphMostly Cloudy
11:50 PM32.0 °F28.4 °F87 %29.50 in6.2 miSE (130°)5.8 mphMostly Cloudy
Hourly data recorded from LSMD, located miles away from Zürich, Switzerland







STORIES FROM OUR PARTNERS